www.cux-wetter.de
Wetterdaten: Montag, 07.02.2011
Datum Zeit Temp. A. Feuchte A. Luftdruck Regen Wind Richtung Richtung Sonnenschein Solar Taupunkt Windchill Windben
07.02.2011 00:04 8,6 C 85 % 1012,5 hPa 0,0 l/m 37,9 km/h (6 Bft) W 265 0 min 0 W/m 6,2 C -2,8 C 37,9 km/h (6 Bft)
07.02.2011 00:10 8,6 C 85 % 1013,5 hPa 0,0 l/m 46,2 km/h (6 Bft) W 260 0 min 0 W/m 6,2 C -4,0 C 46,2 km/h (6 Bft)
07.02.2011 00:15 8,6 C 85 % 1013,5 hPa 0,0 l/m 47,5 km/h (6 Bft) W-SW 255 0 min 0 W/m 6,2 C -4,2 C 47,5 km/h (6 Bft)
07.02.2011 00:19 8,5 C 85 % 1013,5 hPa 0,0 l/m 46,7 km/h (6 Bft) W 260 0 min 0 W/m 6,1 C -4,2 C 46,7 km/h (6 Bft)
07.02.2011 00:24 8,5 C 85 % 1013,5 hPa 0,0 l/m 39,6 km/h (6 Bft) W 260 0 min 0 W/m 6,1 C -3,3 C 39,6 km/h (6 Bft)
07.02.2011 00:29 8,5 C 85 % 1013,5 hPa 0,0 l/m 36,6 km/h (5 Bft) W 265 0 min 0 W/m 6,1 C -2,8 C 36,6 km/h (5 Bft)
07.02.2011 00:34 8,4 C 85 % 1013,5 hPa 0,0 l/m 44,9 km/h (6 Bft) W-SW 255 0 min 0 W/m 6,0 C -4,2 C 44,9 km/h (6 Bft)
07.02.2011 00:39 8,5 C 85 % 1013,5 hPa 0,0 l/m 39,0 km/h (6 Bft) W 265 0 min 0 W/m 6,1 C -3,2 C 39,0 km/h (6 Bft)
07.02.2011 00:44 8,5 C 85 % 1013,5 hPa 0,0 l/m 39,1 km/h (6 Bft) W 260 0 min 0 W/m 6,1 C -3,2 C 39,1 km/h (6 Bft)
07.02.2011 00:49 8,5 C 85 % 1013,5 hPa 0,0 l/m 40,2 km/h (6 Bft) W 260 0 min 0 W/m 6,1 C -3,4 C 40,2 km/h (6 Bft)
07.02.2011 00:55 8,5 C 85 % 1013,5 hPa 0,0 l/m 40,8 km/h (6 Bft) W 265 0 min 0 W/m 6,1 C -3,5 C 40,8 km/h (6 Bft)
07.02.2011 01:00 8,5 C 85 % 1013,5 hPa 0,0 l/m 47,2 km/h (6 Bft) W-SW 255 0 min 0 W/m 6,1 C -4,3 C 47,2 km/h (6 Bft)
07.02.2011 01:04 8,6 C 85 % 1013,5 hPa 0,0 l/m 35,9 km/h (5 Bft) W 260 0 min 0 W/m 6,2 C -2,5 C 35,9 km/h (5 Bft)
07.02.2011 01:09 8,6 C 85 % 1013,5 hPa 0,0 l/m 37,0 km/h (5 Bft) W-SW 255 0 min 0 W/m 6,2 C -2,7 C 37,0 km/h (5 Bft)
07.02.2011 01:14 8,6 C 85 % 1013,5 hPa 0,3 l/m 32,2 km/h (5 Bft) W 260 0 min 0 W/m 6,2 C -1,8 C 32,2 km/h (5 Bft)
07.02.2011 01:19 8,6 C 85 % 1013,5 hPa 0,0 l/m 36,7 km/h (5 Bft) W 260 0 min 0 W/m 6,2 C -2,6 C 36,7 km/h (5 Bft)
07.02.2011 01:24 8,5 C 86 % 1013,5 hPa 0,0 l/m 36,7 km/h (5 Bft) W 270 0 min 0 W/m 6,3 C -2,8 C 36,7 km/h (5 Bft)
07.02.2011 01:30 8,5 C 86 % 1013,5 hPa 0,0 l/m 37,3 km/h (5 Bft) W 260 0 min 0 W/m 6,3 C -2,9 C 37,3 km/h (5 Bft)
07.02.2011 01:34 8,4 C 87 % 1013,5 hPa 0,0 l/m 38,1 km/h (6 Bft) W-SW 255 0 min 0 W/m 6,4 C -3,2 C 38,1 km/h (6 Bft)
07.02.2011 01:39 8,4 C 87 % 1013,5 hPa 0,0 l/m 36,5 km/h (5 Bft) W 270 0 min 0 W/m 6,4 C -2,9 C 36,5 km/h (5 Bft)
07.02.2011 01:44 8,4 C 87 % 1013,5 hPa 0,0 l/m 41,0 km/h (6 Bft) W 260 0 min 0 W/m 6,4 C -3,6 C 41,0 km/h (6 Bft)
07.02.2011 01:49 8,3 C 88 % 1013,5 hPa 0,0 l/m 33,5 km/h (5 Bft) W 265 0 min 0 W/m 6,4 C -2,5 C 33,5 km/h (5 Bft)
07.02.2011 01:54 8,3 C 88 % 1013,5 hPa 0,0 l/m 37,8 km/h (5 Bft) W 260 0 min 0 W/m 6,4 C -3,3 C 37,8 km/h (5 Bft)
07.02.2011 01:59 8,3 C 88 % 1013,5 hPa 0,0 l/m 36,7 km/h (5 Bft) W-SW 255 0 min 0 W/m 6,4 C -3,1 C 36,7 km/h (5 Bft)
07.02.2011 02:05 8,2 C 88 % 1013,5 hPa 0,0 l/m 36,2 km/h (5 Bft) W 260 0 min 0 W/m 6,3 C -3,1 C 36,2 km/h (5 Bft)
07.02.2011 02:09 8,2 C 88 % 1013,5 hPa 0,0 l/m 38,6 km/h (6 Bft) W 270 0 min 0 W/m 6,3 C -3,6 C 38,6 km/h (6 Bft)
07.02.2011 02:14 8,2 C 89 % 1013,5 hPa 0,0 l/m 38,7 km/h (6 Bft) W 265 0 min 0 W/m 6,5 C -3,6 C 38,7 km/h (6 Bft)
07.02.2011 02:19 8,2 C 89 % 1013,5 hPa 0,0 l/m 33,6 km/h (5 Bft) W 270 0 min 0 W/m 6,5 C -2,6 C 33,6 km/h (5 Bft)
07.02.2011 02:24 8,1 C 89 % 1013,5 hPa 0,0 l/m 38,6 km/h (6 Bft) W 260 0 min 0 W/m 6,4 C -3,7 C 38,6 km/h (6 Bft)
07.02.2011 02:29 8,1 C 89 % 1013,5 hPa 0,0 l/m 35,3 km/h (5 Bft) W 265 0 min 0 W/m 6,4 C -3,1 C 35,3 km/h (5 Bft)
07.02.2011 02:34 8,1 C 90 % 1013,5 hPa 0,0 l/m 32,4 km/h (5 Bft) W 270 0 min 0 W/m 6,6 C -2,5 C 32,4 km/h (5 Bft)
07.02.2011 02:39 8,1 C 90 % 1013,5 hPa 0,0 l/m 33,8 km/h (5 Bft) W 260 0 min 0 W/m 6,6 C -2,8 C 33,8 km/h (5 Bft)
07.02.2011 02:45 8,1 C 90 % 1013,5 hPa 0,3 l/m 32,9 km/h (5 Bft) W 260 0 min 0 W/m 6,6 C -2,6 C 32,9 km/h (5 Bft)
07.02.2011 02:50 8,0 C 91 % 1013,5 hPa 0,0 l/m 32,8 km/h (5 Bft) W 265 0 min 0 W/m 6,6 C -2,8 C 32,8 km/h (5 Bft)
07.02.2011 02:54 8,0 C 91 % 1013,5 hPa 0,0 l/m 37,2 km/h (5 Bft) W 260 0 min 0 W/m 6,6 C -3,6 C 37,2 km/h (5 Bft)
07.02.2011 02:59 8,0 C 91 % 1013,5 hPa 0,0 l/m 34,7 km/h (5 Bft) W 265 0 min 0 W/m 6,6 C -3,1 C 34,7 km/h (5 Bft)
07.02.2011 03:04 8,0 C 91 % 1013,5 hPa 0,0 l/m 35,4 km/h (5 Bft) W-SW 255 0 min 0 W/m 6,6 C -3,3 C 35,4 km/h (5 Bft)
07.02.2011 03:09 8,0 C 91 % 1013,5 hPa 0,0 l/m 32,2 km/h (5 Bft) W 260 0 min 0 W/m 6,6 C -2,6 C 32,2 km/h (5 Bft)
07.02.2011 03:14 8,0 C 91 % 1013,5 hPa 0,0 l/m 35,6 km/h (5 Bft) W-SW 255 0 min 0 W/m 6,6 C -3,3 C 35,6 km/h (5 Bft)
07.02.2011 03:20 8,0 C 91 % 1013,5 hPa 0,0 l/m 34,1 km/h (5 Bft) W 260 0 min 0 W/m 6,6 C -3,0 C 34,1 km/h (5 Bft)
07.02.2011 03:25 7,9 C 92 % 1013,5 hPa 0,0 l/m 35,5 km/h (5 Bft) W 260 0 min 0 W/m 6,7 C -3,4 C 35,5 km/h (5 Bft)
07.02.2011 03:29 7,9 C 92 % 1013,5 hPa 0,0 l/m 39,3 km/h (6 Bft) W 260 0 min 0 W/m 6,7 C -4,1 C 39,3 km/h (6 Bft)
07.02.2011 03:34 7,9 C 92 % 1013,5 hPa 0,0 l/m 37,7 km/h (5 Bft) W 260 0 min 0 W/m 6,7 C -3,8 C 37,7 km/h (5 Bft)
07.02.2011 03:39 7,9 C 92 % 1013,5 hPa 0,0 l/m 35,0 km/h (5 Bft) W 260 0 min 0 W/m 6,7 C -3,3 C 35,0 km/h (5 Bft)
07.02.2011 03:44 7,9 C 92 % 1013,5 hPa 0,0 l/m 38,8 km/h (6 Bft) W 260 0 min 0 W/m 6,7 C -4,0 C 38,8 km/h (6 Bft)
07.02.2011 03:49 7,9 C 92 % 1013,5 hPa 0,3 l/m 33,5 km/h (5 Bft) W 260 0 min 0 W/m 6,7 C -3,1 C 33,5 km/h (5 Bft)
07.02.2011 03:54 7,9 C 92 % 1013,5 hPa 0,0 l/m 35,9 km/h (5 Bft) W 265 0 min 0 W/m 6,7 C -3,5 C 35,9 km/h (5 Bft)
07.02.2011 04:00 7,9 C 92 % 1013,5 hPa 0,0 l/m 37,0 km/h (5 Bft) W 260 0 min 0 W/m 6,7 C -3,7 C 37,0 km/h (5 Bft)
07.02.2011 04:04 7,9 C 92 % 1013,5 hPa 0,0 l/m 36,8 km/h (5 Bft) W-SW 255 0 min 0 W/m 6,7 C -3,7 C 36,8 km/h (5 Bft)
07.02.2011 04:09 7,9 C 92 % 1013,5 hPa 0,0 l/m 40,2 km/h (6 Bft) W 260 0 min 0 W/m 6,7 C -4,3 C 40,2 km/h (6 Bft)
07.02.2011 04:14 7,9 C 92 % 1013,5 hPa 0,0 l/m 37,3 km/h (5 Bft) W 270 0 min 0 W/m 6,7 C -3,8 C 37,3 km/h (5 Bft)
07.02.2011 04:19 7,9 C 92 % 1013,5 hPa 0,0 l/m 34,0 km/h (5 Bft) W 260 0 min 0 W/m 6,7 C -3,2 C 34,0 km/h (5 Bft)
07.02.2011 04:24 8,0 C 92 % 1013,5 hPa 0,0 l/m 39,3 km/h (6 Bft) W 260 0 min 0 W/m 6,8 C -4,0 C 39,3 km/h (6 Bft)
07.02.2011 04:30 8,0 C 92 % 1013,5 hPa 0,0 l/m 32,2 km/h (5 Bft) W 260 0 min 0 W/m 6,8 C -2,6 C 32,2 km/h (5 Bft)
07.02.2011 04:35 8,0 C 91 % 1013,5 hPa 0,0 l/m 39,8 km/h (6 Bft) W 260 0 min 0 W/m 6,6 C -4,0 C 39,8 km/h (6 Bft)
07.02.2011 04:39 8,0 C 91 % 1013,5 hPa 0,0 l/m 35,3 km/h (5 Bft) W 260 0 min 0 W/m 6,6 C -3,3 C 35,3 km/h (5 Bft)
07.02.2011 04:44 8,0 C 91 % 1013,5 hPa 0,0 l/m 36,6 km/h (5 Bft) W-SW 255 0 min 0 W/m 6,6 C -3,5 C 36,6 km/h (5 Bft)
07.02.2011 04:49 8,1 C 91 % 1013,5 hPa 0,0 l/m 38,9 km/h (6 Bft) W 260 0 min 0 W/m 6,7 C -3,7 C 38,9 km/h (6 Bft)
07.02.2011 04:54 8,0 C 91 % 1013,5 hPa 0,0 l/m 39,4 km/h (6 Bft) W-SW 255 0 min 0 W/m 6,6 C -4,0 C 39,4 km/h (6 Bft)
07.02.2011 04:59 8,1 C 90 % 1013,5 hPa 0,0 l/m 36,7 km/h (5 Bft) W-SW 255 0 min 0 W/m 6,6 C -3,4 C 36,7 km/h (5 Bft)
07.02.2011 05:05 8,1 C 90 % 1013,5 hPa 0,0 l/m 38,4 km/h (6 Bft) W-SW 255 0 min 0 W/m 6,6 C -3,7 C 38,4 km/h (6 Bft)
07.02.2011 05:09 8,1 C 90 % 1013,5 hPa 0,0 l/m 39,1 km/h (6 Bft) W-SW 250 0 min 0 W/m 6,6 C -3,8 C 39,1 km/h (6 Bft)
07.02.2011 05:14 8,1 C 89 % 1013,5 hPa 0,3 l/m 39,4 km/h (6 Bft) W 260 0 min 0 W/m 6,4 C -3,8 C 39,4 km/h (6 Bft)
07.02.2011 05:19 8,1 C 89 % 1013,5 hPa 0,0 l/m 35,5 km/h (5 Bft) W 260 0 min 0 W/m 6,4 C -3,2 C 35,5 km/h (5 Bft)
07.02.2011 05:24 8,1 C 89 % 1013,5 hPa 0,0 l/m 35,8 km/h (5 Bft) W-SW 255 0 min 0 W/m 6,4 C -3,2 C 35,8 km/h (5 Bft)
07.02.2011 05:29 8,2 C 89 % 1013,5 hPa 0,0 l/m 35,5 km/h (5 Bft) W 265 0 min 0 W/m 6,5 C -3,0 C 35,5 km/h (5 Bft)
07.02.2011 05:34 8,3 C 89 % 1013,5 hPa 0,0 l/m 43,4 km/h (6 Bft) W 260 0 min 0 W/m 6,6 C -4,1 C 43,4 km/h (6 Bft)
07.02.2011 05:40 8,3 C 89 % 1013,5 hPa 0,0 l/m 36,9 km/h (5 Bft) W-SW 255 0 min 0 W/m 6,6 C -3,1 C 36,9 km/h (5 Bft)
07.02.2011 05:45 8,3 C 89 % 1013,5 hPa 0,0 l/m 38,1 km/h (6 Bft) W 260 0 min 0 W/m 6,6 C -3,3 C 38,1 km/h (6 Bft)
07.02.2011 05:49 8,3 C 89 % 1013,5 hPa 0,0 l/m 41,8 km/h (6 Bft) W 265 0 min 0 W/m 6,6 C -3,9 C 41,8 km/h (6 Bft)
07.02.2011 05:54 8,2 C 89 % 1013,5 hPa 0,0 l/m 35,3 km/h (5 Bft) W-SW 255 0 min 0 W/m 6,5 C -3,0 C 35,3 km/h (5 Bft)
07.02.2011 05:59 8,2 C 89 % 1013,5 hPa 0,0 l/m 36,4 km/h (5 Bft) W 265 0 min 0 W/m 6,5 C -3,2 C 36,4 km/h (5 Bft)
07.02.2011 06:05 8,1 C 89 % 1013,5 hPa 0,0 l/m 39,6 km/h (6 Bft) W 260 0 min 0 W/m 6,4 C -3,9 C 39,6 km/h (6 Bft)
07.02.2011 06:10 8,0 C 89 % 1013,5 hPa 0,0 l/m 37,8 km/h (5 Bft) W 260 0 min 0 W/m 6,3 C -3,7 C 37,8 km/h (5 Bft)
07.02.2011 06:14 8,0 C 89 % 1013,5 hPa 0,0 l/m 37,8 km/h (5 Bft) W 260 0 min 0 W/m 6,3 C -3,7 C 37,8 km/h (5 Bft)
07.02.2011 06:19 8,0 C 89 % 1013,5 hPa 0,0 l/m 32,5 km/h (5 Bft) W 265 0 min 0 W/m 6,3 C -2,7 C 32,5 km/h (5 Bft)
07.02.2011 06:24 8,0 C 89 % 1013,5 hPa 0,0 l/m 35,1 km/h (5 Bft) W 260 0 min 0 W/m 6,3 C -3,2 C 35,1 km/h (5 Bft)
07.02.2011 06:29 8,0 C 89 % 1013,5 hPa 0,0 l/m 32,2 km/h (5 Bft) W 260 0 min 0 W/m 6,3 C -2,6 C 32,2 km/h (5 Bft)
07.02.2011 06:34 7,9 C 89 % 1013,5 hPa 0,0 l/m 40,6 km/h (6 Bft) W 260 0 min 0 W/m 6,2 C -4,3 C 40,6 km/h (6 Bft)
07.02.2011 06:39 7,9 C 90 % 1013,5 hPa 0,0 l/m 34,6 km/h (5 Bft) W 260 0 min 0 W/m 6,4 C -3,3 C 34,6 km/h (5 Bft)
07.02.2011 06:45 7,8 C 90 % 1013,5 hPa 0,3 l/m 33,7 km/h (5 Bft) W 260 0 min 0 W/m 6,3 C -3,2 C 33,7 km/h (5 Bft)
07.02.2011 06:50 7,8 C 90 % 1013,5 hPa 0,0 l/m 32,0 km/h (5 Bft) W-SW 250 0 min 0 W/m 6,3 C -2,9 C 32,0 km/h (5 Bft)
07.02.2011 06:54 7,8 C 89 % 1013,5 hPa 0,0 l/m 38,3 km/h (6 Bft) W-SW 250 0 min 0 W/m 6,1 C -4,1 C 38,3 km/h (6 Bft)
07.02.2011 06:59 7,9 C 89 % 1013,5 hPa 0,0 l/m 41,4 km/h (6 Bft) W 265 0 min 0 W/m 6,2 C -4,4 C 41,4 km/h (6 Bft)
07.02.2011 07:04 7,9 C 89 % 1013,5 hPa 0,0 l/m 38,2 km/h (6 Bft) W-SW 255 0 min 0 W/m 6,2 C -3,9 C 38,2 km/h (6 Bft)
07.02.2011 07:09 7,9 C 89 % 1013,5 hPa 0,0 l/m 34,9 km/h (5 Bft) W-SW 255 0 min 0 W/m 6,2 C -3,3 C 34,9 km/h (5 Bft)
07.02.2011 07:15 7,9 C 89 % 1013,5 hPa 0,0 l/m 36,9 km/h (5 Bft) W-SW 255 0 min 0 W/m 6,2 C -3,7 C 36,9 km/h (5 Bft)
07.02.2011 07:20 7,8 C 89 % 1013,5 hPa 0,0 l/m 35,9 km/h (5 Bft) W-SW 250 0 min 0 W/m 6,1 C -3,7 C 35,9 km/h (5 Bft)
07.02.2011 07:24 7,8 C 89 % 1013,5 hPa 0,0 l/m 32,4 km/h (5 Bft) W-SW 250 0 min 0 W/m 6,1 C -3,0 C 32,4 km/h (5 Bft)
07.02.2011 07:29 7,8 C 88 % 1013,5 hPa 0,0 l/m 36,2 km/h (5 Bft) W-SW 255 0 min 0 W/m 5,9 C -3,7 C 36,2 km/h (5 Bft)
07.02.2011 07:34 7,8 C 88 % 1013,5 hPa 0,0 l/m 43,1 km/h (6 Bft) W 275 0 min 0 W/m 5,9 C -4,8 C 43,1 km/h (6 Bft)
07.02.2011 07:39 7,8 C 88 % 1013,5 hPa 0,0 l/m 36,4 km/h (5 Bft) W 260 0 min 0 W/m 5,9 C -3,8 C 36,4 km/h (5 Bft)
07.02.2011 07:44 7,9 C 88 % 1013,5 hPa 0,0 l/m 37,2 km/h (5 Bft) W-SW 255 0 min 0 W/m 6,0 C -3,8 C 37,2 km/h (5 Bft)
07.02.2011 07:49 7,9 C 88 % 1013,5 hPa 0,0 l/m 39,6 km/h (6 Bft) W-SW 255 0 min 0 W/m 6,0 C -4,2 C 39,6 km/h (6 Bft)
07.02.2011 07:55 7,9 C 88 % 1013,5 hPa 0,0 l/m 36,7 km/h (5 Bft) W-SW 255 0 min 0 W/m 6,0 C -3,7 C 36,7 km/h (5 Bft)
07.02.2011 08:00 8,0 C 88 % 1013,5 hPa 0,0 l/m 33,3 km/h (5 Bft) W-SW 255 0 min 0 W/m 6,1 C -2,9 C 33,3 km/h (5 Bft)
07.02.2011 08:04 8,0 C 88 % 1013,5 hPa 0,0 l/m 33,5 km/h (5 Bft) W-SW 255 0 min 0 W/m 6,1 C -2,9 C 33,5 km/h (5 Bft)
07.02.2011 08:09 8,0 C 88 % 1013,5 hPa 0,0 l/m 36,0 km/h (5 Bft) W-SW 255 0 min 0 W/m 6,1 C -3,4 C 36,0 km/h (5 Bft)
07.02.2011 08:14 8,0 C 87 % 1013,5 hPa 0,0 l/m 33,6 km/h (5 Bft) W-SW 250 0 min 0 W/m 6,0 C -2,9 C 33,6 km/h (5 Bft)
07.02.2011 08:19 8,0 C 87 % 1013,5 hPa 0,0 l/m 33,4 km/h (5 Bft) W-SW 255 0 min 0 W/m 6,0 C -2,9 C 33,4 km/h (5 Bft)
07.02.2011 08:25 8,0 C 86 % 1013,5 hPa 0,0 l/m 37,5 km/h (5 Bft) W-SW 255 0 min 0 W/m 5,8 C -3,7 C 37,5 km/h (5 Bft)
07.02.2011 08:29 8,0 C 86 % 1013,5 hPa 0,0 l/m 26,4 km/h (4 Bft) W-SW 255 0 min 0 W/m 5,8 C -1,3 C 26,4 km/h (4 Bft)
07.02.2011 08:34 8,1 C 86 % 1013,5 hPa 0,0 l/m 38,0 km/h (6 Bft) W-SW 250 0 min 0 W/m 5,9 C -3,6 C 38,0 km/h (6 Bft)
07.02.2011 08:39 8,0 C 86 % 1013,5 hPa 0,0 l/m 33,6 km/h (5 Bft) W 260 0 min 0 W/m 5,8 C -2,9 C 33,6 km/h (5 Bft)
07.02.2011 08:44 8,0 C 86 % 1013,5 hPa 0,0 l/m 32,2 km/h (5 Bft) W-SW 255 0 min 0 W/m 5,8 C -2,6 C 32,2 km/h (5 Bft)
07.02.2011 08:49 8,1 C 85 % 1013,5 hPa 0,0 l/m 35,9 km/h (5 Bft) W 260 0 min 0 W/m 5,7 C -3,2 C 35,9 km/h (5 Bft)
07.02.2011 08:54 8,1 C 85 % 1013,5 hPa 0,0 l/m 32,1 km/h (5 Bft) W-SW 255 0 min 0 W/m 5,7 C -2,5 C 32,1 km/h (5 Bft)
07.02.2011 09:00 8,2 C 85 % 1013,5 hPa 0,0 l/m 35,3 km/h (5 Bft) W 260 0 min 0 W/m 5,8 C -3,0 C 35,3 km/h (5 Bft)
07.02.2011 09:04 8,2 C 85 % 1013,5 hPa 0,0 l/m 36,7 km/h (5 Bft) W-SW 255 0 min 0 W/m 5,8 C -3,2 C 36,7 km/h (5 Bft)
07.02.2011 09:09 8,2 C 84 % 1013,5 hPa 0,0 l/m 38,5 km/h (6 Bft) W-SW 255 0 min 0 W/m 5,7 C -3,5 C 38,5 km/h (6 Bft)
07.02.2011 09:14 8,3 C 85 % 1013,5 hPa 0,0 l/m 37,0 km/h (5 Bft) W 265 0 min 0 W/m 5,9 C -3,1 C 37,0 km/h (5 Bft)
07.02.2011 09:19 8,3 C 85 % 1013,5 hPa 0,0 l/m 36,2 km/h (5 Bft) W-SW 250 0 min 0 W/m 5,9 C -3,0 C 36,2 km/h (5 Bft)
07.02.2011 09:24 8,4 C 85 % 1013,5 hPa 0,0 l/m 34,5 km/h (5 Bft) W 260 0 min 0 W/m 6,0 C -2,5 C 34,5 km/h (5 Bft)
07.02.2011 09:30 8,4 C 84 % 1013,5 hPa 0,0 l/m 38,6 km/h (6 Bft) W-SW 255 0 min 0 W/m 5,9 C -3,3 C 38,6 km/h (6 Bft)
07.02.2011 09:35 8,4 C 84 % 1013,5 hPa 0,0 l/m 36,3 km/h (5 Bft) W 260 0 min 0 W/m 5,9 C -2,9 C 36,3 km/h (5 Bft)
07.02.2011 09:39 8,4 C 84 % 1013,5 hPa 0,0 l/m 43,0 km/h (6 Bft) W 260 0 min 0 W/m 5,9 C -3,9 C 43,0 km/h (6 Bft)
07.02.2011 09:44 8,4 C 84 % 1013,5 hPa 0,0 l/m 41,7 km/h (6 Bft) W 260 0 min 0 W/m 5,9 C -3,7 C 41,7 km/h (6 Bft)
07.02.2011 09:49 8,4 C 84 % 1013,5 hPa 0,0 l/m 40,0 km/h (6 Bft) W 260 0 min 0 W/m 5,9 C -3,5 C 40,0 km/h (6 Bft)
07.02.2011 09:54 8,4 C 84 % 1013,5 hPa 0,0 l/m 33,1 km/h (5 Bft) W 260 0 min 0 W/m 5,9 C -2,3 C 33,1 km/h (5 Bft)
07.02.2011 09:59 8,5 C 84 % 1013,5 hPa 0,0 l/m 32,5 km/h (5 Bft) W 260 0 min 0 W/m 6,0 C -2,0 C 32,5 km/h (5 Bft)
07.02.2011 10:04 8,4 C 84 % 1012,5 hPa 0,0 l/m 36,6 km/h (5 Bft) W 260 0 min 0 W/m 5,9 C -2,9 C 36,6 km/h (5 Bft)
07.02.2011 10:09 8,4 C 84 % 1012,5 hPa 0,0 l/m 32,1 km/h (5 Bft) W-SW 250 0 min 0 W/m 5,9 C -2,1 C 32,1 km/h (5 Bft)
07.02.2011 10:14 8,5 C 84 % 1012,5 hPa 0,0 l/m 29,7 km/h (5 Bft) W-SW 250 0 min 0 W/m 6,0 C -1,4 C 29,7 km/h (5 Bft)
07.02.2011 10:19 8,5 C 84 % 1012,5 hPa 0,0 l/m 32,6 km/h (5 Bft) W 260 0 min 0 W/m 6,0 C -2,0 C 32,6 km/h (5 Bft)
07.02.2011 10:24 8,4 C 84 % 1012,5 hPa 0,0 l/m 37,3 km/h (5 Bft) W-SW 250 0 min 0 W/m 5,9 C -3,0 C 37,3 km/h (5 Bft)
07.02.2011 10:29 8,4 C 84 % 1012,5 hPa 0,0 l/m 31,8 km/h (5 Bft) W-SW 250 0 min 0 W/m 5,9 C -2,0 C 31,8 km/h (5 Bft)
07.02.2011 10:35 8,4 C 84 % 1012,5 hPa 0,0 l/m 31,7 km/h (5 Bft) W-SW 250 0 min 0 W/m 5,9 C -2,0 C 31,7 km/h (5 Bft)
07.02.2011 10:40 8,4 C 84 % 1012,5 hPa 0,0 l/m 28,2 km/h (5 Bft) W-SW 250 0 min 0 W/m 5,9 C -1,2 C 28,2 km/h (5 Bft)
07.02.2011 10:44 8,4 C 84 % 1012,5 hPa 0,0 l/m 28,5 km/h (5 Bft) W-SW 245 0 min 0 W/m 5,9 C -1,2 C 28,5 km/h (5 Bft)
07.02.2011 10:49 8,4 C 83 % 1012,5 hPa 0,0 l/m 37,6 km/h (5 Bft) W-SW 245 0 min 0 W/m 5,7 C -3,1 C 37,6 km/h (5 Bft)
07.02.2011 10:54 8,4 C 83 % 1012,5 hPa 0,0 l/m 36,2 km/h (5 Bft) W-SW 250 0 min 0 W/m 5,7 C -2,8 C 36,2 km/h (5 Bft)
07.02.2011 10:59 8,4 C 82 % 1012,5 hPa 0,0 l/m 36,2 km/h (5 Bft) W 260 0 min 0 W/m 5,5 C -2,8 C 36,2 km/h (5 Bft)
07.02.2011 11:04 8,5 C 80 % 1012,5 hPa 0,0 l/m 38,1 km/h (6 Bft) W 260 0 min 0 W/m 5,3 C -3,0 C 38,1 km/h (6 Bft)
07.02.2011 11:09 8,5 C 80 % 1011,5 hPa 0,0 l/m 33,5 km/h (5 Bft) W-SW 250 0 min 0 W/m 5,3 C -2,2 C 33,5 km/h (5 Bft)
07.02.2011 11:14 8,5 C 80 % 1011,5 hPa 0,0 l/m 35,6 km/h (5 Bft) W 260 0 min 0 W/m 5,3 C -2,6 C 35,6 km/h (5 Bft)
07.02.2011 11:19 8,5 C 80 % 1011,5 hPa 0,0 l/m 34,3 km/h (5 Bft) W-SW 250 0 min 0 W/m 5,3 C -2,3 C 34,3 km/h (5 Bft)
07.02.2011 11:24 8,5 C 80 % 1011,5 hPa 0,0 l/m 38,6 km/h (6 Bft) W-SW 255 0 min 0 W/m 5,3 C -3,1 C 38,6 km/h (6 Bft)
07.02.2011 11:29 8,5 C 80 % 1011,5 hPa 0,0 l/m 33,3 km/h (5 Bft) W-SW 255 0 min 0 W/m 5,3 C -2,2 C 33,3 km/h (5 Bft)
07.02.2011 11:35 8,5 C 80 % 1011,5 hPa 0,0 l/m 36,2 km/h (5 Bft) W-SW 250 0 min 0 W/m 5,3 C -2,7 C 36,2 km/h (5 Bft)
07.02.2011 11:39 8,4 C 79 % 1011,5 hPa 0,0 l/m 34,3 km/h (5 Bft) W-SW 255 0 min 0 W/m 5,0 C -2,5 C 34,3 km/h (5 Bft)
07.02.2011 11:44 8,5 C 80 % 1011,5 hPa 0,0 l/m 34,3 km/h (5 Bft) W-SW 250 0 min 0 W/m 5,3 C -2,3 C 34,3 km/h (5 Bft)
07.02.2011 11:49 8,5 C 80 % 1011,5 hPa 0,0 l/m 32,9 km/h (5 Bft) W-SW 255 0 min 0 W/m 5,3 C -2,1 C 32,9 km/h (5 Bft)
07.02.2011 11:54 8,5 C 80 % 1011,5 hPa 0,0 l/m 37,3 km/h (5 Bft) W-SW 250 0 min 0 W/m 5,3 C -2,9 C 37,3 km/h (5 Bft)
07.02.2011 11:59 8,6 C 79 % 1011,5 hPa 0,0 l/m 35,3 km/h (5 Bft) W 260 0 min 0 W/m 5,2 C -2,4 C 35,3 km/h (5 Bft)
07.02.2011 12:04 8,7 C 80 % 1010,5 hPa 0,0 l/m 30,7 km/h (5 Bft) W-SW 250 0 min 0 W/m 5,4 C -1,3 C 30,7 km/h (5 Bft)
07.02.2011 12:09 8,7 C 79 % 1010,5 hPa 0,0 l/m 32,0 km/h (5 Bft) W-SW 255 0 min 0 W/m 5,3 C -1,6 C 32,0 km/h (5 Bft)
07.02.2011 12:14 8,7 C 79 % 1010,5 hPa 0,0 l/m 30,9 km/h (5 Bft) W-SW 255 0 min 0 W/m 5,3 C -1,4 C 30,9 km/h (5 Bft)
07.02.2011 12:19 8,7 C 78 % 1010,5 hPa 0,0 l/m 36,8 km/h (5 Bft) W 260 0 min 0 W/m 5,1 C -2,5 C 36,8 km/h (5 Bft)
07.02.2011 12:24 8,7 C 78 % 1010,5 hPa 0,0 l/m 39,3 km/h (6 Bft) W-SW 250 0 min 0 W/m 5,1 C -2,9 C 39,3 km/h (6 Bft)
07.02.2011 12:30 8,7 C 78 % 1010,5 hPa 0,0 l/m 36,8 km/h (5 Bft) W 260 0 min 0 W/m 5,1 C -2,5 C 36,8 km/h (5 Bft)
07.02.2011 12:35 8,7 C 78 % 1010,5 hPa 0,0 l/m 34,3 km/h (5 Bft) W 260 0 min 0 W/m 5,1 C -2,1 C 34,3 km/h (5 Bft)
07.02.2011 12:39 8,6 C 78 % 1010,5 hPa 0,0 l/m 39,7 km/h (6 Bft) W 260 0 min 0 W/m 5,0 C -3,1 C 39,7 km/h (6 Bft)
07.02.2011 12:44 8,5 C 77 % 1010,5 hPa 0,0 l/m 42,9 km/h (6 Bft) W-SW 255 0 min 0 W/m 4,7 C -3,8 C 42,9 km/h (6 Bft)
07.02.2011 12:49 8,5 C 77 % 1010,5 hPa 0,0 l/m 41,2 km/h (6 Bft) W-SW 255 0 min 0 W/m 4,7 C -3,5 C 41,2 km/h (6 Bft)
07.02.2011 12:54 8,4 C 76 % 1010,5 hPa 0,0 l/m 36,3 km/h (5 Bft) W-SW 255 0 min 0 W/m 4,4 C -2,9 C 36,3 km/h (5 Bft)
07.02.2011 12:59 8,5 C 77 % 1010,5 hPa 0,0 l/m 30,3 km/h (5 Bft) W 260 0 min 0 W/m 4,7 C -1,5 C 30,3 km/h (5 Bft)
07.02.2011 13:04 8,4 C 78 % 1010,5 hPa 0,0 l/m 38,1 km/h (6 Bft) W-SW 255 0 min 0 W/m 4,8 C -3,2 C 38,1 km/h (6 Bft)
07.02.2011 13:09 8,4 C 77 % 1010,5 hPa 0,0 l/m 36,5 km/h (5 Bft) W 260 0 min 0 W/m 4,6 C -2,9 C 36,5 km/h (5 Bft)
07.02.2011 13:14 8,4 C 78 % 1009,5 hPa 0,0 l/m 32,9 km/h (5 Bft) W-SW 255 0 min 0 W/m 4,8 C -2,2 C 32,9 km/h (5 Bft)
07.02.2011 13:19 8,4 C 77 % 1009,5 hPa 0,0 l/m 33,0 km/h (5 Bft) W-SW 255 0 min 0 W/m 4,6 C -2,2 C 33,0 km/h (5 Bft)
07.02.2011 13:24 8,4 C 76 % 1009,5 hPa 0,0 l/m 40,0 km/h (6 Bft) W 260 0 min 0 W/m 4,4 C -3,5 C 40,0 km/h (6 Bft)
07.02.2011 13:30 8,4 C 77 % 1009,5 hPa 0,0 l/m 36,9 km/h (5 Bft) W 260 0 min 0 W/m 4,6 C -3,0 C 36,9 km/h (5 Bft)
07.02.2011 13:35 8,4 C 77 % 1009,5 hPa 0,0 l/m 32,6 km/h (5 Bft) W-SW 250 0 min 0 W/m 4,6 C -2,2 C 32,6 km/h (5 Bft)
07.02.2011 13:39 8,4 C 77 % 1009,5 hPa 0,0 l/m 25,6 km/h (4 Bft) W-SW 255 0 min 0 W/m 4,6 C -0,5 C 25,6 km/h (4 Bft)
07.02.2011 13:44 8,4 C 77 % 1009,5 hPa 0,0 l/m 35,8 km/h (5 Bft) W-SW 250 0 min 0 W/m 4,6 C -2,8 C 35,8 km/h (5 Bft)
07.02.2011 13:49 8,5 C 78 % 1009,5 hPa 0,0 l/m 32,6 km/h (5 Bft) W-SW 255 0 min 0 W/m 4,9 C -2,0 C 32,6 km/h (5 Bft)
07.02.2011 13:54 8,5 C 77 % 1009,5 hPa 0,0 l/m 35,9 km/h (5 Bft) W-SW 250 0 min 0 W/m 4,7 C -2,6 C 35,9 km/h (5 Bft)
07.02.2011 13:59 8,4 C 77 % 1009,5 hPa 0,0 l/m 35,0 km/h (5 Bft) W-SW 250 0 min 0 W/m 4,6 C -2,6 C 35,0 km/h (5 Bft)
07.02.2011 14:04 8,4 C 77 % 1008,5 hPa 0,0 l/m 33,0 km/h (5 Bft) W-SW 245 0 min 0 W/m 4,6 C -2,2 C 33,0 km/h (5 Bft)
07.02.2011 14:09 8,5 C 78 % 1008,5 hPa 0,0 l/m 35,6 km/h (5 Bft) W-SW 250 0 min 0 W/m 4,9 C -2,6 C 35,6 km/h (5 Bft)
07.02.2011 14:14 8,5 C 77 % 1008,5 hPa 0,0 l/m 35,4 km/h (5 Bft) W-SW 255 0 min 0 W/m 4,7 C -2,6 C 35,4 km/h (5 Bft)
07.02.2011 14:19 8,6 C 77 % 1008,5 hPa 0,0 l/m 39,2 km/h (6 Bft) W-SW 250 0 min 0 W/m 4,8 C -3,1 C 39,2 km/h (6 Bft)
07.02.2011 14:24 8,6 C 77 % 1008,5 hPa 0,0 l/m 32,7 km/h (5 Bft) W-SW 250 0 min 0 W/m 4,8 C -1,9 C 32,7 km/h (5 Bft)
07.02.2011 14:30 8,6 C 77 % 1008,5 hPa 0,0 l/m 30,7 km/h (5 Bft) W-SW 255 0 min 0 W/m 4,8 C -1,5 C 30,7 km/h (5 Bft)
07.02.2011 14:34 8,6 C 77 % 1008,5 hPa 0,0 l/m 32,3 km/h (5 Bft) W 260 0 min 0 W/m 4,8 C -1,8 C 32,3 km/h (5 Bft)
07.02.2011 14:39 8,6 C 76 % 1008,5 hPa 0,0 l/m 36,4 km/h (5 Bft) W-SW 255 0 min 0 W/m 4,6 C -2,6 C 36,4 km/h (5 Bft)
07.02.2011 14:44 8,6 C 77 % 1008,5 hPa 0,0 l/m 32,6 km/h (5 Bft) W-SW 255 0 min 0 W/m 4,8 C -1,9 C 32,6 km/h (5 Bft)
07.02.2011 14:49 8,6 C 77 % 1008,5 hPa 0,0 l/m 28,7 km/h (5 Bft) W-SW 250 0 min 0 W/m 4,8 C -1,0 C 28,7 km/h (5 Bft)
07.02.2011 14:54 8,6 C 77 % 1008,5 hPa 0,0 l/m 36,4 km/h (5 Bft) W 260 0 min 0 W/m 4,8 C -2,6 C 36,4 km/h (5 Bft)
07.02.2011 15:00 8,6 C 77 % 1008,5 hPa 0,0 l/m 30,8 km/h (5 Bft) W-SW 250 0 min 0 W/m 4,8 C -1,5 C 30,8 km/h (5 Bft)
07.02.2011 15:04 8,6 C 77 % 1007,5 hPa 0,0 l/m 36,4 km/h (5 Bft) W-SW 240 0 min 0 W/m 4,8 C -2,6 C 36,4 km/h (5 Bft)
07.02.2011 15:09 8,7 C 76 % 1007,5 hPa 0,0 l/m 35,0 km/h (5 Bft) W-SW 250 0 min 0 W/m 4,7 C -2,2 C 35,0 km/h (5 Bft)
07.02.2011 15:14 8,8 C 76 % 1007,5 hPa 0,0 l/m 30,3 km/h (5 Bft) W-SW 250 0 min 0 W/m 4,8 C -1,1 C 30,3 km/h (5 Bft)
07.02.2011 15:19 8,7 C 76 % 1007,5 hPa 0,0 l/m 30,9 km/h (5 Bft) W-SW 250 0 min 0 W/m 4,7 C -1,4 C 30,9 km/h (5 Bft)
07.02.2011 15:25 8,6 C 76 % 1007,5 hPa 0,0 l/m 30,8 km/h (5 Bft) W-SW 255 0 min 0 W/m 4,6 C -1,5 C 30,8 km/h (5 Bft)
07.02.2011 15:30 8,6 C 76 % 1007,5 hPa 0,0 l/m 30,4 km/h (5 Bft) W-SW 250 0 min 0 W/m 4,6 C -1,4 C 30,4 km/h (5 Bft)
07.02.2011 15:34 8,5 C 76 % 1007,5 hPa 0,0 l/m 30,4 km/h (5 Bft) W-SW 245 0 min 0 W/m 4,5 C -1,5 C 30,4 km/h (5 Bft)
07.02.2011 15:39 8,4 C 77 % 1007,5 hPa 0,0 l/m 26,0 km/h (4 Bft) W-SW 250 0 min 0 W/m 4,6 C -0,6 C 26,0 km/h (4 Bft)
07.02.2011 15:44 8,4 C 77 % 1007,5 hPa 0,0 l/m 34,7 km/h (5 Bft) W-SW 255 0 min 0 W/m 4,6 C -2,6 C 34,7 km/h (5 Bft)
07.02.2011 15:49 8,4 C 77 % 1007,5 hPa 0,0 l/m 30,8 km/h (5 Bft) W 260 0 min 0 W/m 4,6 C -1,8 C 30,8 km/h (5 Bft)
07.02.2011 15:54 8,3 C 77 % 1007,5 hPa 0,0 l/m 33,1 km/h (5 Bft) W 260 0 min 0 W/m 4,5 C -2,4 C 33,1 km/h (5 Bft)
07.02.2011 16:00 8,2 C 77 % 1007,5 hPa 0,0 l/m 34,5 km/h (5 Bft) W 260 0 min 0 W/m 4,4 C -2,8 C 34,5 km/h (5 Bft)
07.02.2011 16:04 8,1 C 77 % 1007,5 hPa 0,0 l/m 30,0 km/h (5 Bft) W-SW 255 0 min 0 W/m 4,3 C -2,0 C 30,0 km/h (5 Bft)
07.02.2011 16:09 8,1 C 77 % 1007,5 hPa 0,0 l/m 29,8 km/h (5 Bft) W 260 0 min 0 W/m 4,3 C -2,0 C 29,8 km/h (5 Bft)
07.02.2011 16:14 8,0 C 77 % 1007,5 hPa 0,0 l/m 34,7 km/h (5 Bft) W-SW 255 0 min 0 W/m 4,2 C -3,1 C 34,7 km/h (5 Bft)
07.02.2011 16:19 8,0 C 77 % 1007,5 hPa 0,0 l/m 33,4 km/h (5 Bft) W 265 0 min 0 W/m 4,2 C -2,9 C 33,4 km/h (5 Bft)
07.02.2011 16:25 7,9 C 77 % 1007,5 hPa 0,0 l/m 30,0 km/h (5 Bft) W-SW 245 0 min 0 W/m 4,1 C -2,3 C 30,0 km/h (5 Bft)
07.02.2011 16:29 7,9 C 78 % 1006,5 hPa 0,0 l/m 29,9 km/h (5 Bft) W-SW 250 0 min 0 W/m 4,3 C -2,3 C 29,9 km/h (5 Bft)
07.02.2011 16:34 7,8 C 78 % 1006,5 hPa 0,0 l/m 33,4 km/h (5 Bft) W-SW 255 0 min 0 W/m 4,2 C -3,2 C 33,4 km/h (5 Bft)
07.02.2011 16:39 7,8 C 78 % 1006,5 hPa 0,0 l/m 27,0 km/h (5 Bft) W-SW 255 0 min 0 W/m 4,2 C -1,7 C 27,0 km/h (5 Bft)
07.02.2011 16:44 7,8 C 79 % 1006,5 hPa 0,0 l/m 29,5 km/h (5 Bft) W-SW 250 0 min 0 W/m 4,4 C -2,3 C 29,5 km/h (5 Bft)
07.02.2011 16:49 7,7 C 79 % 1006,5 hPa 0,0 l/m 32,1 km/h (5 Bft) W-SW 255 0 min 0 W/m 4,3 C -3,0 C 32,1 km/h (5 Bft)
07.02.2011 16:55 7,8 C 79 % 1006,5 hPa 0,0 l/m 27,8 km/h (5 Bft) W-SW 250 0 min 0 W/m 4,4 C -1,9 C 27,8 km/h (5 Bft)
07.02.2011 17:00 7,7 C 79 % 1006,5 hPa 0,0 l/m 29,9 km/h (5 Bft) W-SW 250 0 min 0 W/m 4,3 C -2,6 C 29,9 km/h (5 Bft)
07.02.2011 17:04 7,8 C 79 % 1006,5 hPa 0,0 l/m 25,0 km/h (4 Bft) W-SW 250 0 min 0 W/m 4,4 C -1,1 C 25,0 km/h (4 Bft)
07.02.2011 17:09 7,8 C 79 % 1006,5 hPa 0,0 l/m 25,1 km/h (4 Bft) W-SW 250 0 min 0 W/m 4,4 C -1,2 C 25,1 km/h (4 Bft)
07.02.2011 17:14 7,8 C 79 % 1006,5 hPa 0,0 l/m 27,5 km/h (5 Bft) W-SW 245 0 min 0 W/m 4,4 C -1,8 C 27,5 km/h (5 Bft)
07.02.2011 17:20 7,8 C 79 % 1006,5 hPa 0,0 l/m 29,2 km/h (5 Bft) W-SW 245 0 min 0 W/m 4,4 C -2,2 C 29,2 km/h (5 Bft)
07.02.2011 17:24 7,8 C 79 % 1006,5 hPa 0,0 l/m 29,2 km/h (5 Bft) W-SW 245 0 min 0 W/m 4,4 C -2,2 C 29,2 km/h (5 Bft)
07.02.2011 17:29 7,8 C 79 % 1005,5 hPa 0,0 l/m 30,3 km/h (5 Bft) W-SW 245 0 min 0 W/m 4,4 C -2,5 C 30,3 km/h (5 Bft)
07.02.2011 17:34 7,8 C 79 % 1005,5 hPa 0,0 l/m 26,6 km/h (4 Bft) W-SW 245 0 min 0 W/m 4,4 C -1,6 C 26,6 km/h (4 Bft)
07.02.2011 17:39 7,9 C 79 % 1005,5 hPa 0,0 l/m 28,0 km/h (5 Bft) W-SW 255 0 min 0 W/m 4,5 C -1,8 C 28,0 km/h (5 Bft)
07.02.2011 17:44 7,9 C 79 % 1005,5 hPa 0,0 l/m 28,9 km/h (5 Bft) W-SW 245 0 min 0 W/m 4,5 C -2,0 C 28,9 km/h (5 Bft)
07.02.2011 17:50 7,9 C 80 % 1005,5 hPa 0,0 l/m 26,9 km/h (4 Bft) W-SW 240 0 min 0 W/m 4,7 C -1,5 C 26,9 km/h (4 Bft)
07.02.2011 17:54 8,0 C 80 % 1005,5 hPa 0,0 l/m 33,6 km/h (5 Bft) W-SW 255 0 min 0 W/m 4,8 C -2,9 C 33,6 km/h (5 Bft)
07.02.2011 17:59 8,0 C 80 % 1005,5 hPa 0,0 l/m 31,0 km/h (5 Bft) W-SW 250 0 min 0 W/m 4,8 C -2,4 C 31,0 km/h (5 Bft)
07.02.2011 18:04 8,0 C 80 % 1005,5 hPa 0,0 l/m 31,8 km/h (5 Bft) W-SW 245 0 min 0 W/m 4,8 C -2,6 C 31,8 km/h (5 Bft)
07.02.2011 18:10 8,1 C 80 % 1005,5 hPa 0,0 l/m 37,4 km/h (5 Bft) W-SW 250 0 min 0 W/m 4,9 C -3,5 C 37,4 km/h (5 Bft)
07.02.2011 18:15 8,1 C 80 % 1005,5 hPa 0,0 l/m 32,6 km/h (5 Bft) W-SW 245 0 min 0 W/m 4,9 C -2,6 C 32,6 km/h (5 Bft)
07.02.2011 18:19 8,1 C 80 % 1004,5 hPa 0,0 l/m 36,5 km/h (5 Bft) W-SW 250 0 min 0 W/m 4,9 C -3,3 C 36,5 km/h (5 Bft)
07.02.2011 18:24 8,1 C 80 % 1004,5 hPa 0,0 l/m 40,5 km/h (6 Bft) W-SW 250 0 min 0 W/m 4,9 C -4,0 C 40,5 km/h (6 Bft)
07.02.2011 18:29 8,2 C 80 % 1004,5 hPa 0,0 l/m 33,1 km/h (5 Bft) W 260 0 min 0 W/m 5,0 C -2,5 C 33,1 km/h (5 Bft)
07.02.2011 18:34 8,2 C 80 % 1004,5 hPa 0,0 l/m 40,9 km/h (6 Bft) W-SW 255 0 min 0 W/m 5,0 C -3,9 C 40,9 km/h (6 Bft)
07.02.2011 18:40 8,2 C 81 % 1004,5 hPa 0,0 l/m 39,3 km/h (6 Bft) W-SW 255 0 min 0 W/m 5,1 C -3,7 C 39,3 km/h (6 Bft)
07.02.2011 18:45 8,3 C 81 % 1004,5 hPa 0,0 l/m 40,1 km/h (6 Bft) W 260 0 min 0 W/m 5,2 C -3,6 C 40,1 km/h (6 Bft)
07.02.2011 18:49 8,3 C 81 % 1004,5 hPa 0,0 l/m 46,6 km/h (6 Bft) W-SW 250 0 min 0 W/m 5,2 C -4,5 C 46,6 km/h (6 Bft)
07.02.2011 18:54 8,4 C 82 % 1004,5 hPa 0,0 l/m 46,9 km/h (6 Bft) W 265 0 min 0 W/m 5,5 C -4,4 C 46,9 km/h (6 Bft)
07.02.2011 18:59 8,4 C 82 % 1004,5 hPa 0,0 l/m 43,0 km/h (6 Bft) W 260 0 min 0 W/m 5,5 C -3,9 C 43,0 km/h (6 Bft)
07.02.2011 19:05 8,5 C 82 % 1004,5 hPa 0,0 l/m 41,6 km/h (6 Bft) W 265 0 min 0 W/m 5,6 C -3,6 C 41,6 km/h (6 Bft)
07.02.2011 19:09 8,5 C 82 % 1004,5 hPa 0,0 l/m 46,6 km/h (6 Bft) W-SW 255 0 min 0 W/m 5,6 C -4,2 C 46,6 km/h (6 Bft)
07.02.2011 19:14 8,5 C 82 % 1004,5 hPa 0,0 l/m 34,2 km/h (5 Bft) W 260 0 min 0 W/m 5,6 C -2,3 C 34,2 km/h (5 Bft)
07.02.2011 19:19 8,5 C 82 % 1004,5 hPa 0,0 l/m 42,7 km/h (6 Bft) W 265 0 min 0 W/m 5,6 C -3,7 C 42,7 km/h (6 Bft)
07.02.2011 19:24 8,5 C 82 % 1004,5 hPa 0,0 l/m 47,2 km/h (6 Bft) W-SW 250 0 min 0 W/m 5,6 C -4,3 C 47,2 km/h (6 Bft)
07.02.2011 19:29 8,6 C 82 % 1004,5 hPa 0,0 l/m 44,9 km/h (6 Bft) W-SW 255 0 min 0 W/m 5,7 C -3,9 C 44,9 km/h (6 Bft)
07.02.2011 19:35 8,7 C 82 % 1004,5 hPa 0,0 l/m 46,8 km/h (6 Bft) W-SW 255 0 min 0 W/m 5,8 C -4,0 C 46,8 km/h (6 Bft)
07.02.2011 19:39 8,7 C 82 % 1003,5 hPa 0,0 l/m 44,7 km/h (6 Bft) W-SW 255 0 min 0 W/m 5,8 C -3,7 C 44,7 km/h (6 Bft)
07.02.2011 19:44 8,8 C 82 % 1003,5 hPa 0,0 l/m 49,9 km/h (7 Bft) W 260 0 min 0 W/m 5,9 C -4,1 C 49,9 km/h (7 Bft)
07.02.2011 19:49 8,8 C 83 % 1003,5 hPa 0,0 l/m 53,9 km/h (7 Bft) W 265 0 min 0 W/m 6,1 C -4,5 C 53,9 km/h (7 Bft)
07.02.2011 19:54 8,8 C 83 % 1003,5 hPa 0,0 l/m 49,7 km/h (7 Bft) W 265 0 min 0 W/m 6,1 C -4,1 C 49,7 km/h (7 Bft)
07.02.2011 19:59 8,8 C 83 % 1003,5 hPa 0,0 l/m 49,0 km/h (7 Bft) W 260 0 min 0 W/m 6,1 C -4,1 C 49,0 km/h (7 Bft)
07.02.2011 20:04 8,8 C 83 % 1003,5 hPa 0,0 l/m 50,1 km/h (7 Bft) W 260 0 min 0 W/m 6,1 C -4,2 C 50,1 km/h (7 Bft)
07.02.2011 20:09 8,9 C 83 % 1003,5 hPa 0,0 l/m 51,1 km/h (7 Bft) W 260 0 min 0 W/m 6,2 C -4,1 C 51,1 km/h (7 Bft)
07.02.2011 20:14 8,9 C 83 % 1003,5 hPa 0,0 l/m 49,2 km/h (7 Bft) W 265 0 min 0 W/m 6,2 C -3,9 C 49,2 km/h (7 Bft)
07.02.2011 20:19 8,9 C 83 % 1003,5 hPa 0,0 l/m 55,2 km/h (7 Bft) W 265 0 min 0 W/m 6,2 C -4,5 C 55,2 km/h (7 Bft)
07.02.2011 20:24 9,0 C 83 % 1003,5 hPa 0,0 l/m 49,6 km/h (7 Bft) W 260 0 min 0 W/m 6,3 C -3,8 C 49,6 km/h (7 Bft)
07.02.2011 20:30 9,0 C 83 % 1003,5 hPa 0,0 l/m 56,2 km/h (7 Bft) W 265 0 min 0 W/m 6,3 C -4,4 C 56,2 km/h (7 Bft)
07.02.2011 20:34 9,0 C 83 % 1003,5 hPa 0,0 l/m 53,6 km/h (7 Bft) W 260 0 min 0 W/m 6,3 C -4,2 C 53,6 km/h (7 Bft)
07.02.2011 20:39 9,1 C 83 % 1003,5 hPa 0,0 l/m 53,9 km/h (7 Bft) W 265 0 min 0 W/m 6,4 C -4,1 C 53,9 km/h (7 Bft)
07.02.2011 20:44 9,0 C 83 % 1003,5 hPa 0,0 l/m 47,0 km/h (6 Bft) W-SW 255 0 min 0 W/m 6,3 C -3,5 C 47,0 km/h (6 Bft)
07.02.2011 20:49 9,0 C 83 % 1003,5 hPa 0,0 l/m 46,6 km/h (6 Bft) W 265 0 min 0 W/m 6,3 C -3,5 C 46,6 km/h (6 Bft)
07.02.2011 20:54 9,1 C 83 % 1003,5 hPa 0,0 l/m 50,7 km/h (7 Bft) W 270 0 min 0 W/m 6,4 C -3,8 C 50,7 km/h (7 Bft)
07.02.2011 21:00 9,1 C 83 % 1003,5 hPa 0,0 l/m 47,9 km/h (6 Bft) W 265 0 min 0 W/m 6,4 C -3,5 C 47,9 km/h (6 Bft)
07.02.2011 21:04 8,9 C 80 % 1003,5 hPa 0,0 l/m 48,2 km/h (6 Bft) W-NW 295 0 min 0 W/m 5,6 C -3,8 C 48,2 km/h (6 Bft)
07.02.2011 21:09 8,8 C 80 % 1004,5 hPa 0,0 l/m 54,7 km/h (7 Bft) W-NW 285 0 min 0 W/m 5,5 C -4,6 C 54,7 km/h (7 Bft)
07.02.2011 21:14 8,7 C 78 % 1004,5 hPa 0,0 l/m 56,2 km/h (7 Bft) W-NW 295 0 min 0 W/m 5,1 C -4,9 C 56,2 km/h (7 Bft)
07.02.2011 21:20 8,6 C 77 % 1004,5 hPa 0,0 l/m 55,0 km/h (7 Bft) W-NW 290 0 min 0 W/m 4,8 C -4,9 C 55,0 km/h (7 Bft)
07.02.2011 21:25 8,3 C 77 % 1004,5 hPa 0,0 l/m 51,4 km/h (7 Bft) W-NW 285 0 min 0 W/m 4,5 C -5,1 C 51,4 km/h (7 Bft)
07.02.2011 21:29 8,0 C 77 % 1004,5 hPa 0,0 l/m 42,9 km/h (6 Bft) W 280 0 min 0 W/m 4,2 C -4,5 C 42,9 km/h (6 Bft)
07.02.2011 21:34 8,0 C 77 % 1004,5 hPa 0,0 l/m 52,9 km/h (7 Bft) W-NW 290 0 min 0 W/m 4,2 C -5,7 C 52,9 km/h (7 Bft)
07.02.2011 21:39 8,0 C 76 % 1004,5 hPa 0,0 l/m 59,5 km/h (7 Bft) W-NW 285 0 min 0 W/m 4,0 C -6,2 C 59,5 km/h (7 Bft)
07.02.2011 21:44 7,8 C 75 % 1005,5 hPa 0,0 l/m 62,0 km/h (7 Bft) W-NW 295 0 min 0 W/m 3,7 C -6,7 C 62,0 km/h (7 Bft)
07.02.2011 21:50 7,6 C 75 % 1005,5 hPa 0,0 l/m 64,9 km/h (8 Bft) NW 305 0 min 0 W/m 3,5 C -7,2 C 64,9 km/h (8 Bft)
07.02.2011 21:55 7,3 C 76 % 1005,5 hPa 0,0 l/m 54,6 km/h (7 Bft) NW 305 0 min 0 W/m 3,4 C -6,9 C 54,6 km/h (7 Bft)
07.02.2011 21:59 7,2 C 76 % 1005,5 hPa 0,0 l/m 52,2 km/h (7 Bft) NW 310 0 min 0 W/m 3,3 C -6,8 C 52,2 km/h (7 Bft)
07.02.2011 22:04 7,1 C 75 % 1005,5 hPa 0,0 l/m 48,3 km/h (6 Bft) W-NW 295 0 min 0 W/m 3,0 C -6,6 C 48,3 km/h (6 Bft)
07.02.2011 22:10 6,9 C 76 % 1005,5 hPa 0,0 l/m 50,5 km/h (7 Bft) W-NW 295 0 min 0 W/m 3,0 C -7,1 C 50,5 km/h (7 Bft)
07.02.2011 22:15 6,9 C 77 % 1005,5 hPa 0,0 l/m 43,3 km/h (6 Bft) W-NW 285 0 min 0 W/m 3,2 C -6,2 C 43,3 km/h (6 Bft)
07.02.2011 22:19 6,8 C 77 % 1005,5 hPa 0,0 l/m 39,6 km/h (6 Bft) NW 305 0 min 0 W/m 3,1 C -5,8 C 39,6 km/h (6 Bft)
07.02.2011 22:24 6,8 C 78 % 1006,5 hPa 0,0 l/m 46,0 km/h (6 Bft) W-NW 295 0 min 0 W/m 3,2 C -6,7 C 46,0 km/h (6 Bft)
07.02.2011 22:29 6,7 C 78 % 1006,5 hPa 0,0 l/m 43,1 km/h (6 Bft) W-NW 295 0 min 0 W/m 3,1 C -6,5 C 43,1 km/h (6 Bft)
07.02.2011 22:34 6,7 C 78 % 1006,5 hPa 0,0 l/m 44,9 km/h (6 Bft) W-NW 290 0 min 0 W/m 3,1 C -6,7 C 44,9 km/h (6 Bft)
07.02.2011 22:40 6,8 C 78 % 1006,5 hPa 0,0 l/m 45,3 km/h (6 Bft) W-NW 290 0 min 0 W/m 3,2 C -6,6 C 45,3 km/h (6 Bft)
07.02.2011 22:45 6,7 C 79 % 1006,5 hPa 0,0 l/m 55,0 km/h (7 Bft) W-NW 295 0 min 0 W/m 3,3 C -7,9 C 55,0 km/h (7 Bft)
07.02.2011 22:49 6,7 C 79 % 1006,5 hPa 0,0 l/m 45,8 km/h (6 Bft) W-NW 285 0 min 0 W/m 3,3 C -6,9 C 45,8 km/h (6 Bft)
07.02.2011 22:54 6,7 C 79 % 1006,5 hPa 0,0 l/m 43,1 km/h (6 Bft) W-NW 290 0 min 0 W/m 3,3 C -6,5 C 43,1 km/h (6 Bft)
07.02.2011 22:59 6,7 C 79 % 1006,5 hPa 0,0 l/m 60,6 km/h (7 Bft) W 280 0 min 0 W/m 3,3 C -8,4 C 60,6 km/h (7 Bft)
07.02.2011 23:04 6,7 C 79 % 1006,5 hPa 0,0 l/m 42,8 km/h (6 Bft) W-NW 295 0 min 0 W/m 3,3 C -6,4 C 42,8 km/h (6 Bft)
07.02.2011 23:09 6,7 C 80 % 1006,5 hPa 0,0 l/m 34,6 km/h (5 Bft) W-NW 290 0 min 0 W/m 3,5 C -5,0 C 34,6 km/h (5 Bft)
07.02.2011 23:14 6,6 C 80 % 1006,5 hPa 0,0 l/m 48,6 km/h (6 Bft) W-NW 285 0 min 0 W/m 3,4 C -7,4 C 48,6 km/h (6 Bft)
07.02.2011 23:19 6,6 C 80 % 1006,5 hPa 0,0 l/m 53,4 km/h (7 Bft) W 280 0 min 0 W/m 3,4 C -7,9 C 53,4 km/h (7 Bft)
07.02.2011 23:24 6,6 C 80 % 1007,5 hPa 0,0 l/m 47,7 km/h (6 Bft) W-NW 285 0 min 0 W/m 3,4 C -7,3 C 47,7 km/h (6 Bft)
07.02.2011 23:30 6,6 C 80 % 1007,5 hPa 0,0 l/m 51,1 km/h (7 Bft) W-NW 290 0 min 0 W/m 3,4 C -7,7 C 51,1 km/h (7 Bft)
07.02.2011 23:34 6,6 C 80 % 1007,5 hPa 0,0 l/m 43,7 km/h (6 Bft) W-NW 290 0 min 0 W/m 3,4 C -6,7 C 43,7 km/h (6 Bft)
07.02.2011 23:39 6,5 C 81 % 1007,5 hPa 0,0 l/m 40,4 km/h (6 Bft) W-NW 300 0 min 0 W/m 3,5 C -6,4 C 40,4 km/h (6 Bft)
07.02.2011 23:44 6,5 C 81 % 1007,5 hPa 0,0 l/m 42,3 km/h (6 Bft) W-NW 285 0 min 0 W/m 3,5 C -6,7 C 42,3 km/h (6 Bft)
07.02.2011 23:49 6,4 C 81 % 1007,5 hPa 0,0 l/m 46,2 km/h (6 Bft) W 280 0 min 0 W/m 3,4 C -7,4 C 46,2 km/h (6 Bft)
07.02.2011 23:55 6,4 C 82 % 1007,5 hPa 0,0 l/m 42,6 km/h (6 Bft) NW 305 0 min 0 W/m 3,6 C -6,9 C 42,6 km/h (6 Bft)
_ Min-Zeit 23:49 21:44 19:39 - 17:04 - - - - 22:10 22:59 17:04
Minimum _ 6,4 C 75 % 1003,5 hPa - 25,0 km/h (4 Bft) - - - - 3,0 C -8,4 C 25,0 km/h (4 Bft)
_ Max-Zeit 20:39 03:25 00:10 01:14 21:50 - - 00:04 00:04 04:24 13:39 21:50
Maximum _ 9,1 C 92 % 1013,5 hPa 0,3 l/m 64,9 km/h
NW (8 Bft)
- - 0 min 0 W/m 6,8 C -0,5 C 64,9 km/h
NW (8 Bft)
Durchschnitt _ 8,1 C 83 % 1009,9 hPa #1,5 l/m 38,2 km/h (6 Bft) W-SW - #0 min. 0 W/m 5,4 C -3,4 C 38,2 km/h (6 Bft)
copyright by Holger Just